Terminal Aerodrome Forecast
Issued by NWS Tampa Bay Area, FL

Home | Current Version | Previous Version | Text Only | Print | Product List | Glossary On
Versions: 1 2 3 4 5 6 7 8 9 10 11 12 13 14 15 16 17
000
FTUS42 KTBW 302028 AAA
TAFSRQ
TAF AMD
KSRQ 302028Z 3020/3118 30007KT P6SM VCTS SCT030CB BKN080
      TEMPO 3020/3022 TSRA BKN025CB
     FM310200 02005KT P6SM BKN025 BKN060
     FM310600 10004KT P6SM SCT250
     FM311700 21007KT P6SM BKN060 BKN080=

USA.gov is the U.S. government's official web portal to all federal, state and local government web resources and services.